This demonstration page uses our WeatherBlox Daily Observations layout. Learn more.

38.89511, -77.03637

Hourly Observations for August 13, 2015

Temp ( °F °C ) Dew Point ( °F °C ) Humidity (%) Winds ( mph kmh ) Pressure ( in mb ) Visibility ( mi km ) Precip ( " mm )
12:52 am 00:52 Clear 73 23 57 14 57 57 NNW 8 13 30 1016 10 16.09344 0 0
1:52 am 01:52 Mostly Clear 72 22 57 14 61 61 NNW 6 9 30 1016 10 16.09344 0 0
2:52 am 02:52 Partly Cloudy 70 21 57 14 64 64 NNW 6 9 30 1016 10 16.09344 0 0
3:52 am 03:52 Cloudy 72 22 57 14 61 61 NNW 6 9 30.03 1017 10 16.09344 0 0
4:52 am 04:52 Mostly Cloudy 72 22 57 14 61 61 N 8 13 30.03 1017 10 16.09344 0 0
5:52 am 05:52 Mostly Cloudy 70 21 57 14 64 64 NNW 8 13 30.06 1018 10 16.09344 0 0
6:52 am 06:52 Partly Cloudy 68 20 57 14 69 69 N 8 13 30.06 1018 10 16.09344 0 0
7:52 am 07:52 Mostly Sunny 70 21 57 14 64 64 N 7 11 30.09 1019 10 16.09344 0 0
8:52 am 08:52 Mostly Sunny 73 23 59 15 61 61 NNW 7 11 30.09 1019 10 16.09344 0 0
9:52 am 09:52 Mostly Sunny 75 24 61 16 61 61 NW 8 13 30.09 1019 10 16.09344 0 0
10:52 am 10:52 Partly Cloudy 79 26 57 14 48 48 N 7 11 30.12 1020 10 16.09344 0 0
11:52 am 11:52 Partly Cloudy 81 27 55 13 42 42 N 7 11 30.09 1019 10 16.09344 0 0
12:52 pm 12:52 Partly Cloudy 82 28 55 13 40 40 NNW 6 9 30.09 1019 10 16.09344 0 0
1:52 pm 13:52 Mostly Cloudy 82 28 52 11 35 35 WSW 8 13 30.09 1019 10 16.09344 0 0
2:52 pm 14:52 Mostly Cloudy 84 29 48 9 29 29 W 13 20 30.09 1019 10 16.09344 0 0
3:52 pm 15:52 Mostly Cloudy 84 29 45 7 25 25 NNW 8 13 30.09 1019 10 16.09344 0 0
4:52 pm 16:52 Mostly Cloudy 82 28 48 9 30 30 NNW 10 17 30.09 1019 10 16.09344 0 0
5:52 pm 17:52 Mostly Cloudy 82 28 45 7 26 26 NW 7 11 30.09 1019 10 16.09344 0 0
6:52 pm 18:52 Mostly Cloudy 81 27 50 10 34 34 NNW 9 15 30.09 1019 10 16.09344 0 0
7:52 pm 19:52 Mostly Cloudy 79 26 48 9 34 34 NNW 8 13 30.09 1019 10 16.09344 0 0
8:52 pm 20:52 Mostly Cloudy 77 25 48 9 36 36 NNW 6 9 30.12 1020 10 16.09344 0 0
9:52 pm 21:52 Partly Cloudy 77 25 50 10 39 39 Calm 30.12 1020 10 16.09344 0 0
10:52 pm 22:52 Mostly Clear 72 22 55 13 57 57 Calm 30.15 1021 10 16.09344 0 0
11:52 pm 23:52 Mostly Clear 72 22 55 13 57 57 WSW 5 7 30.15 1021 10 16.09344 0 0

Powered by AerisWeather